Waarnemingen

Advertentie
Mijn weer
Girona/Costa Brava, Spanje (8184): temperatuur & dauwpunt: 20.09.2020 06:00:00 - 26.09.2020 06:00:00 (CEST)Girona/Costa Brava, Spanje (8184): windsnelheid: 20.09.2020 06:00:00 - 26.09.2020 06:00:00 (CEST)Girona/Costa Brava, Spanje (8184): windrichting: 20.09.2020 06:00:00 - 26.09.2020 06:00:00 (CEST)Girona/Costa Brava, Spanje (8184): luchtdruk: 20.09.2020 06:00:00 - 26.09.2020 06:00:00 (CEST)Girona/Costa Brava, Spanje (8184): zicht: 20.09.2020 06:00:00 - 26.09.2020 06:00:00 (CEST)
Datum & Tijd tt [°C] td [°C] ff [km/u] ff [kn] dd ppp [hPa] vv [km]
26.09.2020 06:00:00 9,5 4,9 8 4 N 1013,5 -
26.09.2020 05:00:00 10,9 4,2 9 5 W 1013,2 -
26.09.2020 04:00:00 10,8 3,4 4 2 WNW 1013,8 -
26.09.2020 03:00:00 10,9 3,7 9 5 NW 1014,3 -
26.09.2020 02:00:00 11,6 3,3 5 3 WZW 1014,1 -
26.09.2020 01:00:00 12,6 2,2 5 3 WZW 1014,4 -
26.09.2020 00:00:00 12,4 2,8 4 2 N 1014,0 -
25.09.2020 23:00:00 13,8 1,5 9 5 W 1013,1 -
25.09.2020 22:00:00 14,9 1,2 9 5 W 1012,9 -
25.09.2020 21:00:00 15,9 0,4 11 6 W 1012,3 -
25.09.2020 20:00:00 17,4 -0,4 8 4 NW 1011,5 -
25.09.2020 19:00:00 20,5 -1,2 9 5 WNW 1010,4 -
25.09.2020 18:00:00 23,0 -1,2 11 6 W 1009,0 -
25.09.2020 17:00:00 23,8 1,5 13 7 ZW 1008,7 -
25.09.2020 16:00:00 21,3 8,7 9 5 O 1008,6 -
25.09.2020 15:00:00 21,5 8,6 8 4 ONO 1008,4 -
25.09.2020 14:00:00 23,2 8,7 13 7 O 1008,2 -
25.09.2020 13:00:00 22,1 9,1 5 3 ONO 1008,1 -
25.09.2020 12:00:00 19,8 8,6 8 4 OZO 1008,6 -
25.09.2020 11:00:00 17,0 7,6 4 2 NNW 1008,9 -
25.09.2020 10:00:00 14,3 7,8 11 6 N 1008,5 -
25.09.2020 09:00:00 13,8 9,1 8 4 NNW 1008,2 -
25.09.2020 08:00:00 13,1 8,0 8 4 NW 1007,9 -
25.09.2020 07:00:00 13,2 9,0 13 7 N 1007,8 -
25.09.2020 06:00:00 13,9 11,6 9 5 NNO 1007,4 -
25.09.2020 05:00:00 15,3 12,8 16 9 NNW 1007,3 -
25.09.2020 04:00:00 15,3 13,5 11 6 N 1007,0 -
25.09.2020 03:00:00 16,0 13,7 8 4 N 1007,4 -
25.09.2020 02:00:00 16,9 14,0 2 1 ZW 1007,5 20
25.09.2020 01:00:00 16,7 13,8 8 4 ZO 1007,9 -
25.09.2020 00:00:00 17,9 14,0 4 2 ONO 1008,2 -
24.09.2020 23:00:00 19,5 14,1 4 2 Z 1008,3 20
24.09.2020 22:00:00 20,1 14,4 4 2 Z 1008,2 -
24.09.2020 21:00:00 20,8 14,2 16 9 ZZO 1007,6 -
24.09.2020 20:00:00 22,9 13,9 16 9 Z 1007,2 -
24.09.2020 19:00:00 24,7 12,1 13 7 Z 1006,6 -
24.09.2020 18:00:00 25,8 10,8 16 9 ZZW 1006,4 -
24.09.2020 17:00:00 26,8 10,1 21 11 ZZW 1006,7 -
24.09.2020 16:00:00 28,1 13,7 21 11 Z 1006,7 -
24.09.2020 15:00:00 29,3 11,3 22 12 ZZW 1007,3 -
24.09.2020 14:00:00 27,3 19,0 22 12 OZO 1007,9 -
24.09.2020 13:00:00 26,7 18,2 21 11 ZO 1008,9 -
24.09.2020 12:00:00 25,0 17,4 21 11 ZO 1010,1 -
24.09.2020 11:00:00 22,7 17,1 9 5 ZZO 1010,6 -
24.09.2020 10:00:00 20,7 16,1 8 4 ZZO 1010,6 -
24.09.2020 09:00:00 17,6 15,4 2 1 Z 1010,9 -
24.09.2020 08:00:00 15,5 14,4 4 2 Z 1010,8 40
24.09.2020 07:00:00 15,2 13,9 5 3 N 1010,7 -
24.09.2020 06:00:00 16,7 14,5 0 0 N 1010,7 -
24.09.2020 05:00:00 17,3 15,3 4 2 Z 1010,9 -
24.09.2020 04:00:00 18,6 15,5 2 1 N 1010,9 -
24.09.2020 03:00:00 19,5 15,8 15 8 NNW 1010,8 -
24.09.2020 02:00:00 18,5 16,8 13 7 NNW 1010,8 -
24.09.2020 01:00:00 18,3 16,6 8 4 NNW 1010,6 -
24.09.2020 00:00:00 18,9 16,3 0 0 N 1010,1 -
23.09.2020 23:00:00 20,1 16,5 4 2 Z 1010,1 20
23.09.2020 22:00:00 21,8 16,7 8 4 Z 1009,6 -
23.09.2020 21:00:00 21,0 17,6 15 8 ZZO 1008,9 -
23.09.2020 20:00:00 22,6 17,9 13 7 ZZO 1008,4 30
23.09.2020 19:00:00 24,6 17,8 26 14 ZZO 1008,1 -
23.09.2020 18:00:00 27,5 16,8 24 13 ZZO 1007,5 -
23.09.2020 17:00:00 28,4 16,7 28 15 ZO 1007,6 30
23.09.2020 16:00:00 29,3 16,2 24 13 ZZO 1007,8 -
23.09.2020 15:00:00 29,2 13,7 22 12 ZO 1008,2 -
23.09.2020 14:00:00 27,9 17,3 16 9 ZO 1009,1 30
23.09.2020 13:00:00 26,1 18,1 13 7 OZO 1010,1 -
23.09.2020 12:00:00 25,1 16,8 4 2 ZO 1010,6 -
23.09.2020 11:00:00 21,3 16,2 8 4 ZZO 1011,1 30
23.09.2020 10:00:00 18,9 16,8 4 2 OZO 1011,2 -
23.09.2020 09:00:00 15,6 15,3 5 3 NO 1011,4 -
23.09.2020 08:00:00 13,4 13,4 0 0 N 1011,4 -
23.09.2020 07:00:00 13,3 13,3 4 2 ZW 1011,3 -
23.09.2020 06:00:00 13,8 13,8 4 2 N 1011,2 -
23.09.2020 05:00:00 13,8 13,8 4 2 ZO 1011,5 -
23.09.2020 04:00:00 14,4 14,4 4 2 WNW 1011,6 -
23.09.2020 03:00:00 14,8 14,7 0 0 N 1012,1 -
23.09.2020 02:00:00 15,8 15,3 2 1 ZZW 1012,3 -
23.09.2020 01:00:00 16,8 16,1 8 4 NW 1012,5 -
23.09.2020 00:00:00 16,9 16,1 0 0 N 1013,1 -
22.09.2020 23:00:00 18,1 16,6 5 3 N 1013,1 -
22.09.2020 22:00:00 18,5 16,5 11 6 N 1012,7 -
22.09.2020 21:00:00 18,5 16,5 9 5 N 1012,1 -
22.09.2020 20:00:00 18,1 16,3 8 4 NO 1011,7 30
22.09.2020 19:00:00 20,4 15,9 16 9 Z 1011,3 -
22.09.2020 18:00:00 20,6 17,2 18 10 Z 1011,7 -
22.09.2020 17:00:00 20,0 15,6 11 6 ZW 1012,0 18
22.09.2020 16:00:00 23,6 18,8 16 9 Z 1012,1 -
22.09.2020 15:00:00 23,2 17,8 15 8 ZZO 1012,8 -
22.09.2020 14:00:00 24,9 17,1 9 5 ZZW 1013,1 20
22.09.2020 13:00:00 24,3 17,9 5 3 ZO 1014,0 -
22.09.2020 12:00:00 22,4 17,5 8 4 ZO 1014,4 -
22.09.2020 11:00:00 21,3 16,3 4 2 ZO 1014,5 -
22.09.2020 10:00:00 20,2 17,6 0 0 N 1014,5 -
22.09.2020 09:00:00 17,0 17,0 0 0 N 1014,2 -
22.09.2020 08:00:00 14,9 14,9 4 2 NNO 1014,3 25
22.09.2020 07:00:00 14,4 14,4 5 3 NO 1014,1 -
22.09.2020 06:00:00 15,2 15,2 2 1 NO 1014,1 -
22.09.2020 05:00:00 16,0 16,0 0 0 N 1014,5 -
22.09.2020 04:00:00 16,1 16,1 4 2 ZZW 1014,6 -
22.09.2020 03:00:00 16,0 15,8 4 2 ZW 1015,2 -
22.09.2020 02:00:00 16,7 16,1 4 2 ZW 1015,2 20
22.09.2020 01:00:00 16,7 16,4 4 2 NNO 1015,8 -
22.09.2020 00:00:00 16,9 16,1 8 4 WNW 1016,1 -
21.09.2020 23:00:00 16,3 15,7 4 2 W 1016,1 20
21.09.2020 22:00:00 17,3 16,2 9 5 NNW 1015,9 -
21.09.2020 21:00:00 18,4 17,1 8 4 NNW 1015,1 -
21.09.2020 20:00:00 18,5 17,5 5 3 W 1014,9 15
21.09.2020 19:00:00 20,5 17,3 4 2 W 1015,0 -
21.09.2020 18:00:00 21,6 18,9 4 2 ZZO 1014,7 -
21.09.2020 17:00:00 21,8 19,3 5 3 NO 1015,1 -
21.09.2020 16:00:00 21,3 19,7 8 4 ZZW 1015,0 -
21.09.2020 15:00:00 20,1 18,9 13 7 Z 1015,6 -
21.09.2020 14:00:00 21,6 18,9 15 8 ZO 1015,9 -
21.09.2020 13:00:00 24,3 18,1 9 5 Z 1015,7 -
21.09.2020 12:00:00 22,7 18,6 5 3 ZZO 1015,9 -
21.09.2020 11:00:00 21,0 18,2 4 2 ZZW 1016,3 30
21.09.2020 10:00:00 18,6 17,9 2 1 WZW 1016,0 -
21.09.2020 09:00:00 17,3 17,1 0 0 N 1015,5 -
21.09.2020 08:00:00 16,0 16,0 0 0 N 1015,5 20
21.09.2020 07:00:00 15,8 15,8 4 2 NNO 1015,0 -
21.09.2020 06:00:00 16,3 16,3 4 2 W 1014,8 -
21.09.2020 05:00:00 16,6 16,6 5 3 Z 1015,1 -
21.09.2020 04:00:00 16,8 16,6 4 2 NNW 1015,1 -
21.09.2020 03:00:00 17,1 17,1 0 0 N 1015,4 -
21.09.2020 02:00:00 17,5 17,0 0 0 N 1015,5 20
21.09.2020 01:00:00 17,9 17,6 2 1 NO 1015,6 -
21.09.2020 00:00:00 17,9 17,6 0 0 N 1015,5 -
20.09.2020 23:00:00 18,5 18,0 4 2 NW 1015,7 2,0
20.09.2020 22:00:00 19,1 18,1 0 0 N 1015,4 -
20.09.2020 21:00:00 20,1 17,7 0 0 N 1014,8 -
20.09.2020 20:00:00 21,0 18,0 4 2 ZO 1014,2 25
20.09.2020 19:00:00 22,6 17,7 9 5 Z 1013,9 -
20.09.2020 18:00:00 23,2 18,5 8 4 OZO 1013,6 -
20.09.2020 17:00:00 23,4 19,1 11 6 OZO 1013,5 20
20.09.2020 16:00:00 21,9 19,6 11 6 ZO 1013,9 -
20.09.2020 15:00:00 21,5 18,1 5 3 OZO 1014,2 -
20.09.2020 14:00:00 24,3 16,2 13 7 ZO 1014,0 25
20.09.2020 13:00:00 27,3 15,4 11 6 Z 1013,9 -
20.09.2020 12:00:00 26,0 16,8 4 2 ZO 1014,2 -
20.09.2020 11:00:00 24,6 17,0 5 3 Z 1014,1 -
20.09.2020 10:00:00 22,9 14,5 2 1 ZO 1014,0 -
20.09.2020 09:00:00 18,6 15,5 5 3 NNO 1014,1 -
20.09.2020 08:00:00 15,8 14,1 4 2 WZW 1013,7 30
20.09.2020 07:00:00 15,8 13,7 8 4 WZW 1013,2 -
20.09.2020 06:00:00 15,6 13,6 5 3 OZO 1013,2 -

tt = temperatuur
td = dauwpunt
ff = windsnelheid
dd = windrichting
ppp = luchtdruk
vv = zicht

Weerstations in de omgeving